Wetterdaten: Samstag, 02.01.2016
Datum Zeit Temp. A. Feuchte A. Luftdruck Regen Wind Richtung Richtung Sonnenschein ET UV Solar Taupunkt Windchill Windben Empfang
02.01.2016 00:00 0,1 C 98 % 1023,1 hPa 0,0 l/m 12,5 km/h (3 Bft) NO 38 0 min 0,000 mm 0,0 UV-I 0 W/m -0,2 C -5,2 C 19,3 km/h (3 Bft) 97,52 %
02.01.2016 00:05 0,0 C 98 % 1023,1 hPa 0,0 l/m 10,8 km/h (2 Bft) O-NO 77 0 min 0,000 mm 0,0 UV-I 0 W/m -0,3 C -4,1 C 16,1 km/h (3 Bft) 96,46 %
02.01.2016 00:10 -0,1 C 98 % 1023,0 hPa 0,0 l/m 11,0 km/h (2 Bft) O-NO 59 0 min 0,000 mm 0,0 UV-I 0 W/m -0,4 C -4,4 C 17,7 km/h (3 Bft) 96,61 %
02.01.2016 00:15 -0,1 C 98 % 1023,0 hPa 0,0 l/m 8,9 km/h (2 Bft) O-NO 61 0 min 0,000 mm 0,0 UV-I 0 W/m -0,4 C -2,6 C 14,5 km/h (3 Bft) 95,73 %
02.01.2016 00:20 -0,1 C 98 % 1022,9 hPa 0,0 l/m 7,9 km/h (2 Bft) O-NO 59 0 min 0,000 mm 0,0 UV-I 0 W/m -0,4 C -1,7 C 14,5 km/h (3 Bft) 97,32 %
02.01.2016 00:25 -0,1 C 98 % 1022,9 hPa 0,0 l/m 6,9 km/h (2 Bft) O-NO 63 0 min 0,000 mm 0,0 UV-I 0 W/m -0,4 C -0,6 C 9,7 km/h (2 Bft) 99,15 %
02.01.2016 00:30 -0,1 C 98 % 1022,7 hPa 0,0 l/m 8,9 km/h (2 Bft) NO 50 0 min 0,000 mm 0,0 UV-I 0 W/m -0,4 C -2,6 C 12,9 km/h (3 Bft) 97,44 %
02.01.2016 00:35 -0,2 C 98 % 1022,7 hPa 0,0 l/m 7,0 km/h (2 Bft) O-NO 61 0 min 0,000 mm 0,0 UV-I 0 W/m -0,5 C -0,8 C 12,9 km/h (3 Bft) 99,17 %
02.01.2016 00:40 -0,2 C 98 % 1022,6 hPa 0,0 l/m 9,6 km/h (2 Bft) NO 55 0 min 0,000 mm 0,0 UV-I 0 W/m -0,5 C -3,3 C 16,1 km/h (3 Bft) 100,00 %
02.01.2016 00:45 -0,3 C 98 % 1022,6 hPa 0,0 l/m 12,1 km/h (2 Bft) O-NO 57 0 min 0,000 mm 0,0 UV-I 0 W/m -0,6 C -5,4 C 17,7 km/h (3 Bft) 98,20 %
02.01.2016 00:50 -0,3 C 98 % 1022,5 hPa 0,0 l/m 11,8 km/h (2 Bft) NO 55 0 min 0,000 mm 0,0 UV-I 0 W/m -0,6 C -5,2 C 19,3 km/h (3 Bft) 99,15 %
02.01.2016 00:55 -0,4 C 98 % 1022,3 hPa 0,0 l/m 10,3 km/h (2 Bft) O-NO 67 0 min 0,000 mm 0,0 UV-I 0 W/m -0,7 C -4,1 C 17,7 km/h (3 Bft) 100,00 %
02.01.2016 01:00 -0,5 C 98 % 1022,2 hPa 0,0 l/m 8,0 km/h (2 Bft) N-NO 32 0 min 0,000 mm 0,0 UV-I 0 W/m -0,8 C -2,2 C 14,5 km/h (3 Bft) 97,44 %
02.01.2016 01:05 -0,5 C 98 % 1022,1 hPa 0,0 l/m 9,7 km/h (2 Bft) NO 40 0 min 0,000 mm 0,0 UV-I 0 W/m -0,8 C -3,7 C 16,1 km/h (3 Bft) 97,52 %
02.01.2016 01:10 -0,5 C 98 % 1022,1 hPa 0,0 l/m 8,2 km/h (2 Bft) N-NO 30 0 min 0,000 mm 0,0 UV-I 0 W/m -0,8 C -2,4 C 12,9 km/h (3 Bft) 100,00 %
02.01.2016 01:15 -0,5 C 98 % 1022,0 hPa 0,0 l/m 7,9 km/h (2 Bft) NO 37 0 min 0,000 mm 0,0 UV-I 0 W/m -0,8 C -2,1 C 14,5 km/h (3 Bft) 99,15 %
02.01.2016 01:20 -0,5 C 98 % 1022,0 hPa 0,0 l/m 9,4 km/h (2 Bft) NO 53 0 min 0,000 mm 0,0 UV-I 0 W/m -0,8 C -3,5 C 16,1 km/h (3 Bft) 99,08 %
02.01.2016 01:25 -0,5 C 98 % 1021,9 hPa 0,0 l/m 7,2 km/h (2 Bft) O-NO 66 0 min 0,000 mm 0,0 UV-I 0 W/m -0,8 C -1,3 C 14,5 km/h (3 Bft) 100,00 %
02.01.2016 01:30 -0,5 C 98 % 1021,8 hPa 0,0 l/m 9,7 km/h (2 Bft) NO 56 0 min 0,000 mm 0,0 UV-I 0 W/m -0,8 C -3,7 C 14,5 km/h (3 Bft) 99,15 %
02.01.2016 01:35 -0,4 C 98 % 1021,7 hPa 0,0 l/m 7,6 km/h (2 Bft) O-NO 59 0 min 0,000 mm 0,0 UV-I 0 W/m -0,7 C -1,7 C 16,1 km/h (3 Bft) 99,15 %
02.01.2016 01:40 -0,4 C 98 % 1021,7 hPa 0,0 l/m 7,9 km/h (2 Bft) O-NO 59 0 min 0,000 mm 0,0 UV-I 0 W/m -0,7 C -2,0 C 14,5 km/h (3 Bft) 97,46 %
02.01.2016 01:45 -0,4 C 98 % 1021,5 hPa 0,0 l/m 9,2 km/h (2 Bft) O-NO 76 0 min 0,000 mm 0,0 UV-I 0 W/m -0,7 C -3,2 C 16,1 km/h (3 Bft) 96,33 %
02.01.2016 01:50 -0,4 C 98 % 1021,4 hPa 0,0 l/m 8,6 km/h (2 Bft) O-NO 57 0 min 0,000 mm 0,0 UV-I 0 W/m -0,7 C -2,6 C 14,5 km/h (3 Bft) 97,50 %
02.01.2016 01:55 -0,3 C 98 % 1021,4 hPa 0,0 l/m 9,3 km/h (2 Bft) NO 45 0 min 0,000 mm 0,0 UV-I 0 W/m -0,6 C -3,2 C 16,1 km/h (3 Bft) 96,61 %
02.01.2016 02:00 -0,3 C 98 % 1021,4 hPa 0,0 l/m 10,3 km/h (2 Bft) O-NO 57 0 min 0,000 mm 0,0 UV-I 0 W/m -0,6 C -4,0 C 16,1 km/h (3 Bft) 95,76 %
02.01.2016 02:05 -0,3 C 98 % 1021,4 hPa 0,0 l/m 10,7 km/h (2 Bft) NO 36 0 min 0,000 mm 0,0 UV-I 0 W/m -0,6 C -4,4 C 17,7 km/h (3 Bft) 97,44 %
02.01.2016 02:10 -0,3 C 98 % 1021,3 hPa 0,0 l/m 13,0 km/h (3 Bft) NO 55 0 min 0,000 mm 0,0 UV-I 0 W/m -0,6 C -6,1 C 19,3 km/h (3 Bft) 96,61 %
02.01.2016 02:15 -0,3 C 98 % 1021,3 hPa 0,0 l/m 14,4 km/h (3 Bft) NO 44 0 min 0,000 mm 0,0 UV-I 0 W/m -0,6 C -7,0 C 25,7 km/h (4 Bft) 98,26 %
02.01.2016 02:20 -0,2 C 98 % 1021,2 hPa 0,0 l/m 15,5 km/h (3 Bft) O-NO 60 0 min 0,000 mm 0,0 UV-I 0 W/m -0,5 C -7,5 C 24,1 km/h (4 Bft) 96,67 %
02.01.2016 02:25 -0,2 C 98 % 1021,2 hPa 0,0 l/m 16,5 km/h (3 Bft) NO 49 0 min 0,000 mm 0,0 UV-I 0 W/m -0,5 C -8,1 C 24,1 km/h (4 Bft) 98,31 %
02.01.2016 02:30 -0,2 C 98 % 1021,1 hPa 0,0 l/m 17,4 km/h (3 Bft) NO 55 0 min 0,000 mm 0,0 UV-I 0 W/m -0,5 C -8,6 C 25,7 km/h (4 Bft) 99,06 %
02.01.2016 02:35 -0,2 C 98 % 1021,1 hPa 0,0 l/m 16,9 km/h (3 Bft) NO 52 0 min 0,000 mm 0,0 UV-I 0 W/m -0,5 C -8,3 C 24,1 km/h (4 Bft) 98,37 %
02.01.2016 02:40 -0,2 C 98 % 1021,1 hPa 0,0 l/m 20,3 km/h (4 Bft) NO 43 0 min 0,000 mm 0,0 UV-I 0 W/m -0,5 C -10,0 C 27,4 km/h (4 Bft) 99,15 %
02.01.2016 02:45 -0,2 C 98 % 1021,2 hPa 0,0 l/m 17,6 km/h (3 Bft) NO 39 0 min 0,000 mm 0,0 UV-I 0 W/m -0,5 C -8,7 C 25,7 km/h (4 Bft) 98,20 %
02.01.2016 02:50 -0,2 C 98 % 1021,2 hPa 0,0 l/m 17,6 km/h (3 Bft) O 82 0 min 0,000 mm 0,0 UV-I 0 W/m -0,5 C -8,7 C 27,4 km/h (4 Bft) 100,00 %
02.01.2016 02:55 -0,2 C 98 % 1021,1 hPa 0,0 l/m 20,3 km/h (4 Bft) O-NO 77 0 min 0,000 mm 0,0 UV-I 0 W/m -0,5 C -10,0 C 32,2 km/h (5 Bft) 99,15 %
02.01.2016 03:00 -0,3 C 98 % 1021,0 hPa 0,0 l/m 17,4 km/h (3 Bft) NO 55 0 min 0,000 mm 0,0 UV-I 0 W/m -0,6 C -8,7 C 24,1 km/h (4 Bft) 95,90 %
02.01.2016 03:05 -0,3 C 98 % 1021,0 hPa 0,0 l/m 15,3 km/h (3 Bft) O-NO 76 0 min 0,000 mm 0,0 UV-I 0 W/m -0,6 C -7,5 C 22,5 km/h (4 Bft) 99,15 %
02.01.2016 03:10 -0,3 C 98 % 1020,8 hPa 0,0 l/m 14,3 km/h (3 Bft) NO 49 0 min 0,000 mm 0,0 UV-I 0 W/m -0,6 C -6,9 C 24,1 km/h (4 Bft) 98,15 %
02.01.2016 03:15 -0,3 C 98 % 1020,7 hPa 0,0 l/m 11,0 km/h (2 Bft) NO 43 0 min 0,000 mm 0,0 UV-I 0 W/m -0,6 C -4,6 C 19,3 km/h (3 Bft) 98,35 %
02.01.2016 03:20 -0,3 C 98 % 1020,6 hPa 0,0 l/m 13,9 km/h (3 Bft) N-NO 31 0 min 0,000 mm 0,0 UV-I 0 W/m -0,6 C -6,7 C 20,9 km/h (4 Bft) 100,00 %
02.01.2016 03:25 -0,3 C 98 % 1020,5 hPa 0,0 l/m 14,5 km/h (3 Bft) NO 37 0 min 0,000 mm 0,0 UV-I 0 W/m -0,6 C -7,0 C 20,9 km/h (4 Bft) 100,00 %
02.01.2016 03:30 -0,3 C 98 % 1020,4 hPa 0,0 l/m 18,3 km/h (3 Bft) NO 38 0 min 0,000 mm 0,0 UV-I 0 W/m -0,6 C -9,2 C 24,1 km/h (4 Bft) 98,39 %
02.01.2016 03:35 -0,4 C 98 % 1020,4 hPa 0,0 l/m 20,8 km/h (4 Bft) O 93 0 min 0,000 mm 0,0 UV-I 0 W/m -0,7 C -10,5 C 29,0 km/h (5 Bft) 99,15 %
02.01.2016 03:40 -0,4 C 98 % 1020,3 hPa 0,0 l/m 21,7 km/h (4 Bft) O 80 0 min 0,000 mm 0,0 UV-I 0 W/m -0,7 C -10,9 C 32,2 km/h (5 Bft) 99,17 %
02.01.2016 03:45 -0,4 C 98 % 1020,2 hPa 0,0 l/m 17,5 km/h (3 Bft) O-NO 59 0 min 0,000 mm 0,0 UV-I 0 W/m -0,7 C -8,9 C 25,7 km/h (4 Bft) 98,21 %
02.01.2016 03:50 -0,3 C 98 % 1020,0 hPa 0,0 l/m 20,2 km/h (4 Bft) O-NO 62 0 min 0,000 mm 0,0 UV-I 0 W/m -0,6 C -10,1 C 32,2 km/h (5 Bft) 99,15 %
02.01.2016 03:55 -0,4 C 98 % 1019,9 hPa 0,0 l/m 22,3 km/h (4 Bft) NO 55 0 min 0,000 mm 0,0 UV-I 0 W/m -0,7 C -11,2 C 32,2 km/h (5 Bft) 97,52 %
02.01.2016 04:00 -0,4 C 98 % 1020,0 hPa 0,0 l/m 20,4 km/h (4 Bft) O-NO 68 0 min 0,000 mm 0,0 UV-I 0 W/m -0,7 C -10,3 C 30,6 km/h (5 Bft) 96,33 %
02.01.2016 04:05 -0,3 C 98 % 1019,9 hPa 0,0 l/m 18,7 km/h (3 Bft) NO 54 0 min 0,000 mm 0,0 UV-I 0 W/m -0,6 C -9,4 C 27,4 km/h (4 Bft) 95,24 %
02.01.2016 04:10 -0,3 C 98 % 1019,9 hPa 0,0 l/m 16,9 km/h (3 Bft) O-NO 62 0 min 0,000 mm 0,0 UV-I 0 W/m -0,6 C -8,4 C 27,4 km/h (4 Bft) 97,46 %
02.01.2016 04:15 -0,3 C 98 % 1019,8 hPa 0,0 l/m 22,1 km/h (4 Bft) O-NO 63 0 min 0,000 mm 0,0 UV-I 0 W/m -0,6 C -11,0 C 35,4 km/h (5 Bft) 95,83 %
02.01.2016 04:20 -0,3 C 98 % 1019,8 hPa 0,0 l/m 20,5 km/h (4 Bft) O-NO 74 0 min 0,000 mm 0,0 UV-I 0 W/m -0,6 C -10,3 C 30,6 km/h (5 Bft) 97,25 %
02.01.2016 04:25 -0,3 C 98 % 1019,7 hPa 0,0 l/m 19,3 km/h (3 Bft) O-NO 78 0 min 0,000 mm 0,0 UV-I 0 W/m -0,6 C -9,7 C 29,0 km/h (5 Bft) 97,46 %
02.01.2016 04:30 -0,3 C 98 % 1019,7 hPa 0,0 l/m 16,6 km/h (3 Bft) O-NO 69 0 min 0,000 mm 0,0 UV-I 0 W/m -0,6 C -8,3 C 29,0 km/h (5 Bft) 97,50 %
02.01.2016 04:35 -0,3 C 98 % 1019,6 hPa 0,0 l/m 16,1 km/h (3 Bft) O-NO 75 0 min 0,000 mm 0,0 UV-I 0 W/m -0,6 C -8,0 C 24,1 km/h (4 Bft) 99,15 %
02.01.2016 04:40 -0,3 C 98 % 1019,6 hPa 0,0 l/m 17,2 km/h (3 Bft) NO 51 0 min 0,000 mm 0,0 UV-I 0 W/m -0,6 C -8,6 C 24,1 km/h (4 Bft) 96,69 %
02.01.2016 04:45 -0,3 C 98 % 1019,6 hPa 0,0 l/m 18,3 km/h (3 Bft) O-NO 65 0 min 0,000 mm 0,0 UV-I 0 W/m -0,6 C -9,2 C 27,4 km/h (4 Bft) 99,07 %
02.01.2016 04:50 -0,3 C 98 % 1019,6 hPa 0,0 l/m 20,9 km/h (4 Bft) O-NO 73 0 min 0,000 mm 0,0 UV-I 0 W/m -0,6 C -10,4 C 32,2 km/h (5 Bft) 100,00 %
02.01.2016 04:55 -0,3 C 98 % 1019,5 hPa 0,0 l/m 22,3 km/h (4 Bft) O 84 0 min 0,000 mm 0,0 UV-I 0 W/m -0,6 C -11,0 C 32,2 km/h (5 Bft) 99,16 %
02.01.2016 05:00 -0,2 C 98 % 1019,5 hPa 0,0 l/m 22,6 km/h (4 Bft) NO 51 0 min 0,000 mm 0,0 UV-I 0 W/m -0,5 C -11,0 C 35,4 km/h (5 Bft) 98,33 %
02.01.2016 05:05 -0,2 C 98 % 1019,5 hPa 0,0 l/m 20,4 km/h (4 Bft) O 85 0 min 0,000 mm 0,0 UV-I 0 W/m -0,5 C -10,1 C 30,6 km/h (5 Bft) 99,15 %
02.01.2016 05:10 -0,2 C 98 % 1019,6 hPa 0,0 l/m 15,2 km/h (3 Bft) O-NO 60 0 min 0,000 mm 0,0 UV-I 0 W/m -0,5 C -7,3 C 22,5 km/h (4 Bft) 100,00 %
02.01.2016 05:15 -0,2 C 97 % 1019,6 hPa 0,0 l/m 20,1 km/h (4 Bft) O-NO 67 0 min 0,000 mm 0,0 UV-I 0 W/m -0,6 C -9,9 C 27,4 km/h (4 Bft) 97,46 %
02.01.2016 05:20 -0,2 C 97 % 1019,5 hPa 0,0 l/m 22,4 km/h (4 Bft) O-NO 69 0 min 0,000 mm 0,0 UV-I 0 W/m -0,6 C -11,0 C 35,4 km/h (5 Bft) 100,00 %
02.01.2016 05:25 -0,2 C 97 % 1019,5 hPa 0,0 l/m 20,9 km/h (4 Bft) NO 54 0 min 0,000 mm 0,0 UV-I 0 W/m -0,6 C -10,3 C 32,2 km/h (5 Bft) 100,00 %
02.01.2016 05:30 -0,2 C 96 % 1019,5 hPa 0,0 l/m 21,6 km/h (4 Bft) O-NO 59 0 min 0,000 mm 0,0 UV-I 0 W/m -0,8 C -10,6 C 32,2 km/h (5 Bft) 99,17 %
02.01.2016 05:35 -0,2 C 96 % 1019,5 hPa 0,0 l/m 19,4 km/h (3 Bft) NO 48 0 min 0,000 mm 0,0 UV-I 0 W/m -0,8 C -9,6 C 25,7 km/h (4 Bft) 98,31 %
02.01.2016 05:40 -0,2 C 96 % 1019,5 hPa 0,0 l/m 15,6 km/h (3 Bft) O-NO 69 0 min 0,000 mm 0,0 UV-I 0 W/m -0,8 C -7,6 C 27,4 km/h (4 Bft) 99,17 %
02.01.2016 05:45 -0,2 C 96 % 1019,5 hPa 0,0 l/m 13,3 km/h (3 Bft) O-NO 62 0 min 0,000 mm 0,0 UV-I 0 W/m -0,8 C -6,1 C 20,9 km/h (4 Bft) 99,10 %
02.01.2016 05:50 -0,2 C 96 % 1019,5 hPa 0,0 l/m 14,4 km/h (3 Bft) O-NO 69 0 min 0,000 mm 0,0 UV-I 0 W/m -0,8 C -6,9 C 27,4 km/h (4 Bft) 98,31 %
02.01.2016 05:55 -0,2 C 96 % 1019,4 hPa 0,0 l/m 14,6 km/h (3 Bft) O-NO 75 0 min 0,000 mm 0,0 UV-I 0 W/m -0,8 C -7,0 C 25,7 km/h (4 Bft) 98,32 %
02.01.2016 06:00 -0,2 C 96 % 1019,4 hPa 0,0 l/m 19,7 km/h (3 Bft) NO 45 0 min 0,000 mm 0,0 UV-I 0 W/m -0,8 C -9,7 C 32,2 km/h (5 Bft) 95,04 %
02.01.2016 06:05 -0,2 C 96 % 1019,3 hPa 0,0 l/m 20,5 km/h (4 Bft) O 88 0 min 0,000 mm 0,0 UV-I 0 W/m -0,8 C -10,1 C 30,6 km/h (5 Bft) 97,44 %
02.01.2016 06:10 -0,2 C 96 % 1019,3 hPa 0,0 l/m 20,2 km/h (4 Bft) O-NO 76 0 min 0,000 mm 0,0 UV-I 0 W/m -0,8 C -10,0 C 29,0 km/h (5 Bft) 98,31 %
02.01.2016 06:15 -0,2 C 96 % 1019,3 hPa 0,0 l/m 17,9 km/h (3 Bft) O-NO 58 0 min 0,000 mm 0,0 UV-I 0 W/m -0,8 C -8,9 C 27,4 km/h (4 Bft) 96,30 %
02.01.2016 06:20 -0,2 C 96 % 1019,3 hPa 0,0 l/m 23,6 km/h (4 Bft) NO 51 0 min 0,000 mm 0,0 UV-I 0 W/m -0,8 C -11,4 C 32,2 km/h (5 Bft) 95,83 %
02.01.2016 06:25 -0,2 C 96 % 1019,3 hPa 0,0 l/m 19,9 km/h (4 Bft) NO 41 0 min 0,000 mm 0,0 UV-I 0 W/m -0,8 C -9,8 C 32,2 km/h (5 Bft) 97,46 %
02.01.2016 06:30 -0,2 C 95 % 1019,4 hPa 0,0 l/m 21,0 km/h (4 Bft) O-NO 74 0 min 0,000 mm 0,0 UV-I 0 W/m -0,9 C -10,3 C 32,2 km/h (5 Bft) 97,56 %
02.01.2016 06:35 -0,3 C 95 % 1019,4 hPa 0,0 l/m 19,8 km/h (3 Bft) O 81 0 min 0,000 mm 0,0 UV-I 0 W/m -1,0 C -9,9 C 29,0 km/h (5 Bft) 98,31 %
02.01.2016 06:40 -0,2 C 95 % 1019,4 hPa 0,0 l/m 22,4 km/h (4 Bft) NO 56 0 min 0,000 mm 0,0 UV-I 0 W/m -0,9 C -11,0 C 33,8 km/h (5 Bft) 99,06 %
02.01.2016 06:45 -0,2 C 95 % 1019,4 hPa 0,0 l/m 21,5 km/h (4 Bft) O-NO 61 0 min 0,000 mm 0,0 UV-I 0 W/m -0,9 C -10,6 C 29,0 km/h (5 Bft) 97,50 %
02.01.2016 06:50 -0,2 C 94 % 1019,3 hPa 0,0 l/m 23,7 km/h (4 Bft) O 79 0 min 0,000 mm 0,0 UV-I 0 W/m -1,0 C -11,5 C 37,0 km/h (5 Bft) 100,00 %
02.01.2016 06:55 -0,2 C 94 % 1019,3 hPa 0,0 l/m 23,9 km/h (4 Bft) NO 55 0 min 0,000 mm 0,0 UV-I 0 W/m -1,0 C -11,6 C 35,4 km/h (5 Bft) 99,15 %
02.01.2016 07:00 -0,1 C 94 % 1019,3 hPa 0,0 l/m 20,8 km/h (4 Bft) O-NO 65 0 min 0,000 mm 0,0 UV-I 0 W/m -0,9 C -10,1 C 33,8 km/h (5 Bft) 98,33 %
02.01.2016 07:05 -0,1 C 94 % 1019,3 hPa 0,0 l/m 17,3 km/h (3 Bft) O-NO 68 0 min 0,000 mm 0,0 UV-I 0 W/m -0,9 C -8,4 C 25,7 km/h (4 Bft) 99,15 %
02.01.2016 07:10 -0,1 C 94 % 1019,2 hPa 0,0 l/m 20,3 km/h (4 Bft) O-NO 69 0 min 0,000 mm 0,0 UV-I 0 W/m -0,9 C -9,9 C 29,0 km/h (5 Bft) 100,00 %
02.01.2016 07:15 -0,1 C 94 % 1019,1 hPa 0,0 l/m 20,6 km/h (4 Bft) O-NO 70 0 min 0,000 mm 0,0 UV-I 0 W/m -0,9 C -10,0 C 27,4 km/h (4 Bft) 99,17 %
02.01.2016 07:20 -0,1 C 94 % 1019,0 hPa 0,0 l/m 22,4 km/h (4 Bft) O-NO 60 0 min 0,000 mm 0,0 UV-I 0 W/m -0,9 C -10,8 C 35,4 km/h (5 Bft) 100,00 %
02.01.2016 07:25 0,0 C 94 % 1018,9 hPa 0,0 l/m 17,6 km/h (3 Bft) NO 56 0 min 0,000 mm 0,0 UV-I 0 W/m -0,8 C -8,4 C 24,1 km/h (4 Bft) 98,15 %
02.01.2016 07:30 0,0 C 94 % 1019,0 hPa 0,0 l/m 19,2 km/h (3 Bft) O-NO 69 0 min 0,000 mm 0,0 UV-I 0 W/m -0,8 C -9,3 C 27,4 km/h (4 Bft) 99,19 %
02.01.2016 07:35 0,1 C 94 % 1019,0 hPa 0,0 l/m 19,5 km/h (3 Bft) NO 50 0 min 0,000 mm 0,0 UV-I 0 W/m -0,7 C -9,3 C 29,0 km/h (5 Bft) 99,15 %
02.01.2016 07:40 0,1 C 94 % 1019,0 hPa 0,0 l/m 17,4 km/h (3 Bft) O-NO 74 0 min 0,000 mm 0,0 UV-I 0 W/m -0,7 C -8,2 C 27,4 km/h (4 Bft) 98,29 %
02.01.2016 07:45 0,1 C 94 % 1019,0 hPa 0,0 l/m 20,5 km/h (4 Bft) O 85 0 min 0,000 mm 0,0 UV-I 0 W/m -0,7 C -9,7 C 29,0 km/h (5 Bft) 98,35 %
02.01.2016 07:50 0,1 C 94 % 1019,0 hPa 0,0 l/m 17,6 km/h (3 Bft) O-NO 74 0 min 0,000 mm 0,0 UV-I 0 W/m -0,7 C -8,3 C 27,4 km/h (4 Bft) 99,07 %
02.01.2016 07:55 0,1 C 94 % 1019,0 hPa 0,0 l/m 18,8 km/h (3 Bft) O 88 0 min 0,000 mm 0,0 UV-I 0 W/m -0,7 C -8,9 C 27,4 km/h (4 Bft) 98,35 %
02.01.2016 08:00 0,2 C 94 % 1019,0 hPa 0,0 l/m 20,0 km/h (4 Bft) O 80 0 min 0,000 mm 0,0 UV-I 0 W/m -0,6 C -9,4 C 30,6 km/h (5 Bft) 96,69 %
02.01.2016 08:05 0,2 C 93 % 1019,0 hPa 0,0 l/m 18,5 km/h (3 Bft) O 84 0 min 0,000 mm 0,0 UV-I 0 W/m -0,8 C -8,7 C 27,4 km/h (4 Bft) 97,22 %
02.01.2016 08:10 0,2 C 93 % 1019,1 hPa 0,0 l/m 18,0 km/h (3 Bft) O-NO 62 0 min 0,000 mm 0,0 UV-I 1 W/m -0,8 C -8,4 C 27,4 km/h (4 Bft) 96,69 %
02.01.2016 08:15 0,2 C 94 % 1019,0 hPa 0,0 l/m 18,4 km/h (3 Bft) O-SO 107 0 min 0,000 mm 0,0 UV-I 5 W/m -0,6 C -8,6 C 33,8 km/h (5 Bft) 96,61 %
02.01.2016 08:20 0,3 C 93 % 1019,0 hPa 0,0 l/m 20,8 km/h (4 Bft) O-NO 63 0 min 0,000 mm 0,0 UV-I 6 W/m -0,7 C -9,6 C 30,6 km/h (5 Bft) 96,58 %
02.01.2016 08:25 0,3 C 93 % 1019,0 hPa 0,0 l/m 20,8 km/h (4 Bft) O-NO 61 0 min 0,000 mm 0,0 UV-I 7 W/m -0,7 C -9,6 C 33,8 km/h (5 Bft) 97,52 %
02.01.2016 08:30 0,3 C 93 % 1019,1 hPa 0,0 l/m 13,6 km/h (3 Bft) NO 55 0 min 0,000 mm 0,0 UV-I 9 W/m -0,7 C -5,7 C 20,9 km/h (4 Bft) 95,73 %
02.01.2016 08:35 0,3 C 93 % 1019,1 hPa 0,0 l/m 18,9 km/h (3 Bft) O-NO 58 0 min 0,000 mm 0,0 UV-I 11 W/m -0,7 C -8,7 C 29,0 km/h (5 Bft) 98,31 %
02.01.2016 08:40 0,3 C 93 % 1019,1 hPa 0,0 l/m 17,4 km/h (3 Bft) O-NO 63 0 min 0,000 mm 0,0 UV-I 11 W/m -0,7 C -8,0 C 30,6 km/h (5 Bft) 96,61 %
02.01.2016 08:45 0,3 C 93 % 1019,0 hPa 0,0 l/m 15,8 km/h (3 Bft) NO 51 0 min 0,000 mm 0,0 UV-I 12 W/m -0,7 C -7,1 C 22,5 km/h (4 Bft) 98,15 %
02.01.2016 08:50 0,3 C 93 % 1019,0 hPa 0,0 l/m 12,9 km/h (3 Bft) O-NO 57 0 min 0,000 mm 0,0 UV-I 12 W/m -0,7 C -5,3 C 24,1 km/h (4 Bft) 98,31 %
02.01.2016 08:55 0,3 C 93 % 1018,9 hPa 0,0 l/m 14,3 km/h (3 Bft) O-NO 65 0 min 0,000 mm 0,0 UV-I 16 W/m -0,7 C -6,2 C 20,9 km/h (4 Bft) 100,00 %
02.01.2016 09:00 0,3 C 93 % 1019,0 hPa 0,0 l/m 17,0 km/h (3 Bft) O-NO 74 0 min 0,000 mm 0,0 UV-I 18 W/m -0,7 C -7,8 C 24,1 km/h (4 Bft) 98,33 %
02.01.2016 09:05 0,3 C 93 % 1019,0 hPa 0,0 l/m 12,2 km/h (2 Bft) O-NO 67 0 min 0,000 mm 0,0 UV-I 19 W/m -0,7 C -4,8 C 20,9 km/h (4 Bft) 100,00 %
02.01.2016 09:10 0,3 C 93 % 1018,9 hPa 0,0 l/m 13,9 km/h (3 Bft) O-NO 74 0 min 0,000 mm 0,0 UV-I 17 W/m -0,7 C -5,9 C 19,3 km/h (3 Bft) 97,25 %
02.01.2016 09:15 0,3 C 93 % 1018,9 hPa 0,0 l/m 11,7 km/h (2 Bft) NO 44 0 min 0,000 mm 0,0 UV-I 15 W/m -0,7 C -4,4 C 19,3 km/h (3 Bft) 99,15 %
02.01.2016 09:20 0,3 C 93 % 1018,9 hPa 0,0 l/m 10,0 km/h (2 Bft) O-NO 73 0 min 0,000 mm 0,0 UV-I 16 W/m -0,7 C -3,1 C 17,7 km/h (3 Bft) 99,15 %
02.01.2016 09:25 0,3 C 93 % 1018,9 hPa 0,0 l/m 12,4 km/h (3 Bft) O-NO 71 0 min 0,000 mm 0,0 UV-I 18 W/m -0,7 C -4,9 C 19,3 km/h (3 Bft) 100,00 %
02.01.2016 09:30 0,3 C 93 % 1018,8 hPa 0,0 l/m 10,6 km/h (2 Bft) O-NO 57 0 min 0,000 mm 0,0 UV-I 20 W/m -0,7 C -3,6 C 20,9 km/h (4 Bft) 99,19 %
02.01.2016 09:35 0,3 C 93 % 1018,8 hPa 0,0 l/m 10,3 km/h (2 Bft) NO 34 0 min 0,000 mm 0,0 UV-I 26 W/m -0,7 C -3,4 C 17,7 km/h (3 Bft) 99,15 %
02.01.2016 09:40 0,3 C 93 % 1018,6 hPa 0,0 l/m 13,9 km/h (3 Bft) O-NO 61 0 min 0,000 mm 0,0 UV-I 29 W/m -0,7 C -5,9 C 22,5 km/h (4 Bft) 100,00 %
02.01.2016 09:45 0,3 C 93 % 1018,6 hPa 0,0 l/m 13,8 km/h (3 Bft) O-NO 64 0 min 0,000 mm 0,0 UV-I 32 W/m -0,7 C -5,9 C 19,3 km/h (3 Bft) 100,00 %
02.01.2016 09:50 0,3 C 93 % 1018,5 hPa 0,0 l/m 12,4 km/h (3 Bft) O-NO 64 0 min 0,000 mm 0,0 UV-I 34 W/m -0,7 C -4,9 C 20,9 km/h (4 Bft) 96,58 %
02.01.2016 09:55 0,3 C 93 % 1018,5 hPa 0,0 l/m 14,1 km/h (3 Bft) O-NO 65 0 min 0,000 mm 0,0 UV-I 36 W/m -0,7 C -6,1 C 20,9 km/h (4 Bft) 99,17 %
02.01.2016 10:00 0,3 C 93 % 1018,5 hPa 0,0 l/m 13,3 km/h (3 Bft) NO 39 0 min 0,025 mm 0,0 UV-I 36 W/m -0,7 C -5,6 C 22,5 km/h (4 Bft) 97,25 %
02.01.2016 10:05 0,4 C 93 % 1018,6 hPa 0,0 l/m 15,0 km/h (3 Bft) O-SO 121 0 min 0,000 mm 0,0 UV-I 33 W/m -0,6 C -6,5 C 22,5 km/h (4 Bft) 95,00 %
02.01.2016 10:10 0,4 C 92 % 1018,6 hPa 0,0 l/m 14,7 km/h (3 Bft) O-NO 64 0 min 0,000 mm 0,0 UV-I 37 W/m -0,7 C -6,3 C 22,5 km/h (4 Bft) 95,87 %
02.01.2016 10:15 0,5 C 92 % 1018,6 hPa 0,0 l/m 16,7 km/h (3 Bft) O-NO 59 0 min 0,000 mm 0,0 UV-I 36 W/m -0,6 C -7,3 C 27,4 km/h (4 Bft) 97,44 %
02.01.2016 10:20 0,5 C 92 % 1018,6 hPa 0,0 l/m 14,3 km/h (3 Bft) O-NO 58 0 min 0,000 mm 0,0 UV-I 29 W/m -0,6 C -6,0 C 22,5 km/h (4 Bft) 97,46 %
02.01.2016 10:25 0,5 C 92 % 1018,6 hPa 0,0 l/m 15,5 km/h (3 Bft) O 95 0 min 0,000 mm 0,0 UV-I 34 W/m -0,6 C -6,7 C 24,1 km/h (4 Bft) 97,25 %
02.01.2016 10:30 0,5 C 92 % 1018,6 hPa 0,0 l/m 14,0 km/h (3 Bft) O-NO 74 0 min 0,000 mm 0,0 UV-I 31 W/m -0,6 C -5,8 C 22,5 km/h (4 Bft) 96,61 %
02.01.2016 10:35 0,5 C 92 % 1018,6 hPa 0,0 l/m 17,1 km/h (3 Bft) O-NO 61 0 min 0,000 mm 0,0 UV-I 34 W/m -0,6 C -7,6 C 29,0 km/h (5 Bft) 96,67 %
02.01.2016 10:40 0,5 C 92 % 1018,4 hPa 0,0 l/m 17,6 km/h (3 Bft) O-NO 61 0 min 0,000 mm 0,0 UV-I 30 W/m -0,6 C -7,8 C 29,0 km/h (5 Bft) 99,17 %
02.01.2016 10:45 0,4 C 92 % 1018,3 hPa 0,0 l/m 17,7 km/h (3 Bft) NO 41 0 min 0,000 mm 0,0 UV-I 28 W/m -0,7 C -8,0 C 25,7 km/h (4 Bft) 98,29 %
02.01.2016 10:50 0,4 C 92 % 1018,3 hPa 0,0 l/m 17,5 km/h (3 Bft) O 82 0 min 0,000 mm 0,0 UV-I 27 W/m -0,7 C -7,9 C 24,1 km/h (4 Bft) 99,15 %
02.01.2016 10:55 0,4 C 92 % 1018,2 hPa 0,0 l/m 20,4 km/h (4 Bft) O 80 0 min 0,000 mm 0,0 UV-I 31 W/m -0,7 C -9,3 C 29,0 km/h (5 Bft) 98,17 %
02.01.2016 11:00 0,4 C 92 % 1018,0 hPa 0,0 l/m 20,9 km/h (4 Bft) O-NO 60 0 min 0,026 mm 0,0 UV-I 32 W/m -0,7 C -9,5 C 30,6 km/h (5 Bft) 98,33 %
02.01.2016 11:05 0,4 C 92 % 1018,0 hPa 0,0 l/m 18,3 km/h (3 Bft) O-NO 75 0 min 0,000 mm 0,0 UV-I 40 W/m -0,7 C -8,3 C 25,7 km/h (4 Bft) 98,31 %
02.01.2016 11:10 0,3 C 92 % 1017,9 hPa 0,0 l/m 22,9 km/h (4 Bft) O-NO 77 0 min 0,000 mm 0,0 UV-I 33 W/m -0,8 C -10,5 C 33,8 km/h (5 Bft) 97,50 %
02.01.2016 11:15 0,3 C 92 % 1017,9 hPa 0,0 l/m 19,5 km/h (3 Bft) O-NO 75 0 min 0,000 mm 0,0 UV-I 31 W/m -0,8 C -9,0 C 27,4 km/h (4 Bft) 98,31 %
02.01.2016 11:20 0,3 C 92 % 1017,8 hPa 0,0 l/m 20,7 km/h (4 Bft) O-NO 74 0 min 0,000 mm 0,0 UV-I 32 W/m -0,8 C -9,6 C 32,2 km/h (5 Bft) 100,00 %
02.01.2016 11:25 0,3 C 93 % 1017,8 hPa 0,0 l/m 17,5 km/h (3 Bft) O-NO 63 0 min 0,000 mm 0,0 UV-I 29 W/m -0,7 C -8,0 C 27,4 km/h (4 Bft) 98,41 %
02.01.2016 11:30 0,3 C 93 % 1017,8 hPa 0,0 l/m 14,9 km/h (3 Bft) O-NO 68 0 min 0,000 mm 0,0 UV-I 25 W/m -0,7 C -6,6 C 22,5 km/h (4 Bft) 100,00 %
02.01.2016 11:35 0,3 C 93 % 1017,7 hPa 0,0 l/m 16,5 km/h (3 Bft) O-NO 66 0 min 0,000 mm 0,0 UV-I 21 W/m -0,7 C -7,5 C 27,4 km/h (4 Bft) 98,31 %
02.01.2016 11:40 0,3 C 93 % 1017,7 hPa 0,0 l/m 14,5 km/h (3 Bft) NO 55 0 min 0,000 mm 0,0 UV-I 19 W/m -0,7 C -6,3 C 22,5 km/h (4 Bft) 99,17 %
02.01.2016 11:45 0,3 C 93 % 1017,6 hPa 0,0 l/m 15,7 km/h (3 Bft) O-NO 75 0 min 0,000 mm 0,0 UV-I 23 W/m -0,7 C -7,0 C 22,5 km/h (4 Bft) 98,31 %
02.01.2016 11:50 0,2 C 93 % 1017,5 hPa 0,0 l/m 19,1 km/h (3 Bft) O-NO 60 0 min 0,000 mm 0,0 UV-I 35 W/m -0,8 C -8,9 C 27,4 km/h (4 Bft) 98,33 %
02.01.2016 11:55 0,2 C 93 % 1017,4 hPa 0,0 l/m 21,2 km/h (4 Bft) O-NO 57 0 min 0,000 mm 0,0 UV-I 43 W/m -0,8 C -9,9 C 32,2 km/h (5 Bft) 100,00 %
02.01.2016 12:00 0,2 C 93 % 1017,3 hPa 0,0 l/m 17,7 km/h (3 Bft) O-NO 71 0 min 0,025 mm 0,0 UV-I 55 W/m -0,8 C -8,2 C 27,4 km/h (4 Bft) 99,15 %
02.01.2016 12:05 0,2 C 92 % 1017,3 hPa 0,0 l/m 17,7 km/h (3 Bft) O-NO 69 0 min 0,000 mm 0,0 UV-I 53 W/m -0,9 C -8,2 C 24,1 km/h (4 Bft) 96,55 %
02.01.2016 12:10 0,2 C 92 % 1017,3 hPa 0,0 l/m 18,5 km/h (3 Bft) O-NO 77 0 min 0,000 mm 0,0 UV-I 53 W/m -0,9 C -8,7 C 29,0 km/h (5 Bft) 97,39 %
02.01.2016 12:15 0,2 C 92 % 1017,2 hPa 0,0 l/m 19,0 km/h (3 Bft) O-NO 63 0 min 0,000 mm 0,0 UV-I 62 W/m -0,9 C -8,9 C 29,0 km/h (5 Bft) 96,58 %
02.01.2016 12:20 0,2 C 92 % 1017,1 hPa 0,0 l/m 14,9 km/h (3 Bft) O-NO 63 0 min 0,000 mm 0,0 UV-I 64 W/m -0,9 C -6,7 C 24,1 km/h (4 Bft) 97,30 %
02.01.2016 12:25 0,2 C 92 % 1017,0 hPa 0,0 l/m 19,1 km/h (3 Bft) O 81 0 min 0,000 mm 0,0 UV-I 58 W/m -0,9 C -8,9 C 27,4 km/h (4 Bft) 97,54 %
02.01.2016 12:30 0,2 C 92 % 1017,0 hPa 0,0 l/m 17,7 km/h (3 Bft) O-NO 76 0 min 0,000 mm 0,0 UV-I 53 W/m -0,9 C -8,2 C 29,0 km/h (5 Bft) 95,73 %
02.01.2016 12:35 0,1 C 91 % 1017,0 hPa 0,0 l/m 20,4 km/h (4 Bft) O-NO 64 0 min 0,000 mm 0,0 UV-I 65 W/m -1,2 C -9,7 C 27,4 km/h (4 Bft) 97,52 %
02.01.2016 12:40 0,1 C 91 % 1016,9 hPa 0,0 l/m 19,6 km/h (3 Bft) O 90 0 min 0,000 mm 0,0 UV-I 67 W/m -1,2 C -9,3 C 32,2 km/h (5 Bft) 99,08 %
02.01.2016 12:45 0,1 C 91 % 1016,7 hPa 0,0 l/m 19,0 km/h (3 Bft) NO 49 0 min 0,000 mm 0,0 UV-I 66 W/m -1,2 C -9,0 C 27,4 km/h (4 Bft) 98,33 %
02.01.2016 12:50 0,1 C 91 % 1016,7 hPa 0,0 l/m 19,7 km/h (3 Bft) O-NO 64 0 min 0,000 mm 0,0 UV-I 74 W/m -1,2 C -9,4 C 29,0 km/h (5 Bft) 99,15 %
02.01.2016 12:55 0,0 C 91 % 1016,6 hPa 0,0 l/m 22,5 km/h (4 Bft) O 82 0 min 0,000 mm 0,0 UV-I 76 W/m -1,3 C -10,7 C 32,2 km/h (5 Bft) 99,10 %
02.01.2016 13:00 0,0 C 91 % 1016,5 hPa 0,0 l/m 20,0 km/h (4 Bft) O 88 0 min 0,026 mm 0,0 UV-I 80 W/m -1,3 C -9,6 C 32,2 km/h (5 Bft) 98,41 %
02.01.2016 13:05 0,0 C 91 % 1016,5 hPa 0,0 l/m 19,8 km/h (3 Bft) O 80 0 min 0,000 mm 0,0 UV-I 77 W/m -1,3 C -9,5 C 27,4 km/h (4 Bft) 100,00 %
02.01.2016 13:10 -0,1 C 91 % 1016,4 hPa 0,0 l/m 20,0 km/h (4 Bft) O-NO 59 0 min 0,000 mm 0,0 UV-I 75 W/m -1,4 C -9,8 C 29,0 km/h (5 Bft) 99,06 %
02.01.2016 13:15 -0,1 C 92 % 1016,4 hPa 0,0 l/m 17,9 km/h (3 Bft) O-NO 67 0 min 0,000 mm 0,0 UV-I 67 W/m -1,2 C -8,7 C 27,4 km/h (4 Bft) 100,00 %
02.01.2016 13:20 -0,1 C 92 % 1016,3 hPa 0,0 l/m 18,9 km/h (3 Bft) O-NO 65 0 min 0,000 mm 0,0 UV-I 64 W/m -1,2 C -9,2 C 27,4 km/h (4 Bft) 100,00 %
02.01.2016 13:25 -0,1 C 91 % 1016,1 hPa 0,0 l/m 19,9 km/h (4 Bft) O-NO 59 0 min 0,000 mm 0,0 UV-I 63 W/m -1,4 C -9,7 C 29,0 km/h (5 Bft) 98,29 %
02.01.2016 13:30 -0,1 C 91 % 1016,3 hPa 0,0 l/m 19,6 km/h (3 Bft) NO 53 0 min 0,000 mm 0,0 UV-I 62 W/m -1,4 C -9,6 C 29,0 km/h (5 Bft) 99,15 %
02.01.2016 13:35 -0,1 C 91 % 1016,3 hPa 0,0 l/m 22,0 km/h (4 Bft) O 84 0 min 0,000 mm 0,0 UV-I 54 W/m -1,4 C -10,7 C 29,0 km/h (5 Bft) 98,35 %
02.01.2016 13:40 -0,1 C 91 % 1016,1 hPa 0,0 l/m 18,3 km/h (3 Bft) O-NO 62 0 min 0,000 mm 0,0 UV-I 54 W/m -1,4 C -8,9 C 25,7 km/h (4 Bft) 99,17 %
02.01.2016 13:45 -0,1 C 91 % 1016,2 hPa 0,0 l/m 18,9 km/h (3 Bft) O-NO 74 0 min 0,000 mm 0,0 UV-I 56 W/m -1,4 C -9,2 C 29,0 km/h (5 Bft) 98,31 %
02.01.2016 13:50 -0,1 C 91 % 1016,0 hPa 0,0 l/m 19,1 km/h (3 Bft) O-NO 74 0 min 0,000 mm 0,0 UV-I 53 W/m -1,4 C -9,3 C 30,6 km/h (5 Bft) 99,08 %
02.01.2016 13:55 -0,1 C 91 % 1016,1 hPa 0,0 l/m 21,0 km/h (4 Bft) O-NO 74 0 min 0,000 mm 0,0 UV-I 57 W/m -1,4 C -10,2 C 35,4 km/h (5 Bft) 100,00 %
02.01.2016 14:00 -0,1 C 91 % 1016,1 hPa 0,0 l/m 17,8 km/h (3 Bft) O-NO 58 0 min 0,025 mm 0,0 UV-I 56 W/m -1,4 C -8,7 C 25,7 km/h (4 Bft) 98,35 %
02.01.2016 14:05 -0,2 C 91 % 1016,1 hPa 0,0 l/m 17,1 km/h (3 Bft) NO 48 0 min 0,000 mm 0,0 UV-I 48 W/m -1,5 C -8,4 C 24,1 km/h (4 Bft) 97,44 %
02.01.2016 14:10 -0,1 C 92 % 1016,1 hPa 0,0 l/m 15,5 km/h (3 Bft) NO 55 0 min 0,000 mm 0,0 UV-I 43 W/m -1,2 C -7,4 C 20,9 km/h (4 Bft) 96,33 %
02.01.2016 14:15 -0,1 C 92 % 1016,1 hPa 0,0 l/m 13,6 km/h (3 Bft) O-NO 77 0 min 0,000 mm 0,0 UV-I 40 W/m -1,2 C -6,2 C 19,3 km/h (3 Bft) 96,61 %
02.01.2016 14:20 -0,2 C 91 % 1015,9 hPa 0,0 l/m 19,3 km/h (3 Bft) O-NO 58 0 min 0,000 mm 0,0 UV-I 41 W/m -1,5 C -9,6 C 25,7 km/h (4 Bft) 96,58 %
02.01.2016 14:25 -0,2 C 91 % 1015,9 hPa 0,0 l/m 19,8 km/h (3 Bft) O-NO 63 0 min 0,000 mm 0,0 UV-I 38 W/m -1,5 C -9,8 C 27,4 km/h (4 Bft) 96,77 %
02.01.2016 14:30 -0,3 C 92 % 1015,9 hPa 0,0 l/m 18,4 km/h (3 Bft) O-NO 67 0 min 0,000 mm 0,0 UV-I 33 W/m -1,4 C -9,2 C 25,7 km/h (4 Bft) 93,62 %
02.01.2016 14:40 -0,3 C 92 % 1015,9 hPa 0,0 l/m 19,0 km/h (3 Bft) O-NO 63 0 min 0,000 mm 0,0 UV-I 38 W/m -1,4 C -9,5 C 25,7 km/h (4 Bft) 97,66 %
02.01.2016 14:45 -0,4 C 92 % 1015,9 hPa 0,0 l/m 16,3 km/h (3 Bft) O-NO 67 0 min 0,000 mm 0,0 UV-I 33 W/m -1,5 C -8,2 C 25,7 km/h (4 Bft) 100,00 %
02.01.2016 14:50 -0,4 C 92 % 1015,9 hPa 0,0 l/m 18,0 km/h (3 Bft) O-NO 58 0 min 0,000 mm 0,0 UV-I 32 W/m -1,5 C -9,2 C 29,0 km/h (5 Bft) 98,35 %
02.01.2016 14:55 -0,4 C 92 % 1015,8 hPa 0,0 l/m 19,5 km/h (3 Bft) O-NO 66 0 min 0,000 mm 0,0 UV-I 34 W/m -1,5 C -9,9 C 27,4 km/h (4 Bft) 99,08 %
02.01.2016 15:00 -0,5 C 92 % 1015,8 hPa 0,0 l/m 21,2 km/h (4 Bft) O-NO 74 0 min 0,025 mm 0,0 UV-I 40 W/m -1,6 C -10,8 C 30,6 km/h (5 Bft) 99,15 %
02.01.2016 15:05 -0,6 C 92 % 1015,9 hPa 0,0 l/m 18,8 km/h (3 Bft) NO 51 0 min 0,000 mm 0,0 UV-I 36 W/m -1,7 C -9,8 C 29,0 km/h (5 Bft) 100,00 %
02.01.2016 15:10 -0,6 C 92 % 1015,9 hPa 0,0 l/m 19,1 km/h (3 Bft) NO 55 0 min 0,000 mm 0,0 UV-I 30 W/m -1,7 C -10,0 C 30,6 km/h (5 Bft) 100,00 %
02.01.2016 15:15 -0,7 C 92 % 1015,9 hPa 0,0 l/m 24,5 km/h (4 Bft) NO 55 0 min 0,000 mm 0,0 UV-I 26 W/m -1,8 C -12,5 C 32,2 km/h (5 Bft) 100,00 %
02.01.2016 15:20 -0,7 C 93 % 1015,9 hPa 0,0 l/m 21,0 km/h (4 Bft) NO 38 0 min 0,000 mm 0,0 UV-I 24 W/m -1,7 C -11,0 C 30,6 km/h (5 Bft) 99,15 %
02.01.2016 15:25 -0,8 C 92 % 1016,1 hPa 0,0 l/m 25,0 km/h (4 Bft) O-NO 70 0 min 0,000 mm 0,0 UV-I 20 W/m -1,9 C -12,8 C 35,4 km/h (5 Bft) 99,17 %
02.01.2016 15:30 -0,8 C 92 % 1016,0 hPa 0,0 l/m 25,2 km/h (4 Bft) O-NO 70 0 min 0,000 mm 0,0 UV-I 19 W/m -1,9 C -12,9 C 37,0 km/h (5 Bft) 96,61 %
02.01.2016 15:35 -0,9 C 92 % 1015,9 hPa 0,0 l/m 26,2 km/h (4 Bft) O-NO 67 0 min 0,000 mm 0,0 UV-I 17 W/m -2,0 C -13,4 C 37,0 km/h (5 Bft) 99,15 %
02.01.2016 15:40 -1,0 C 93 % 1015,9 hPa 0,0 l/m 25,8 km/h (4 Bft) O-NO 74 0 min 0,000 mm 0,0 UV-I 16 W/m -2,0 C -13,4 C 37,0 km/h (5 Bft) 100,00 %
02.01.2016 15:45 -1,1 C 93 % 1015,9 hPa 0,0 l/m 25,5 km/h (4 Bft) O-NO 69 0 min 0,000 mm 0,0 UV-I 15 W/m -2,1 C -13,4 C 35,4 km/h (5 Bft) 98,39 %
02.01.2016 15:50 -1,1 C 93 % 1015,9 hPa 0,0 l/m 20,7 km/h (4 Bft) O-NO 71 0 min 0,000 mm 0,0 UV-I 13 W/m -2,1 C -11,4 C 30,6 km/h (5 Bft) 99,06 %
02.01.2016 15:55 -1,1 C 93 % 1015,9 hPa 0,0 l/m 24,7 km/h (4 Bft) O 84 0 min 0,000 mm 0,0 UV-I 10 W/m -2,1 C -13,1 C 37,0 km/h (5 Bft) 98,45 %
02.01.2016 16:00 -1,1 C 93 % 1016,0 hPa 0,0 l/m 23,2 km/h (4 Bft) O-NO 65 0 min 0,026 mm 0,0 UV-I 7 W/m -2,1 C -12,5 C 35,4 km/h (5 Bft) 100,00 %
02.01.2016 16:05 -1,2 C 93 % 1016,1 hPa 0,0 l/m 23,5 km/h (4 Bft) O-NO 66 0 min 0,000 mm 0,0 UV-I 5 W/m -2,2 C -12,7 C 33,8 km/h (5 Bft) 98,37 %
02.01.2016 16:10 -1,2 C 93 % 1016,2 hPa 0,0 l/m 21,3 km/h (4 Bft) O-NO 67 0 min 0,000 mm 0,0 UV-I 3 W/m -2,2 C -11,8 C 37,0 km/h (5 Bft) 96,23 %
02.01.2016 16:15 -1,2 C 93 % 1016,3 hPa 0,0 l/m 26,3 km/h (4 Bft) O-NO 63 0 min 0,000 mm 0,0 UV-I 0 W/m -2,2 C -13,8 C 41,8 km/h (6 Bft) 96,69 %
02.01.2016 16:20 -1,2 C 93 % 1016,2 hPa 0,0 l/m 25,0 km/h (4 Bft) NO 51 0 min 0,000 mm 0,0 UV-I 0 W/m -2,2 C -13,3 C 35,4 km/h (5 Bft) 98,37 %
02.01.2016 16:25 -1,2 C 93 % 1016,3 hPa 0,0 l/m 21,6 km/h (4 Bft) O-NO 67 0 min 0,000 mm 0,0 UV-I 0 W/m -2,2 C -11,9 C 33,8 km/h (5 Bft) 97,46 %
02.01.2016 16:30 -1,3 C 93 % 1016,2 hPa 0,0 l/m 22,2 km/h (4 Bft) NO 56 0 min 0,000 mm 0,0 UV-I 0 W/m -2,3 C -12,3 C 30,6 km/h (5 Bft) 97,50 %
02.01.2016 16:35 -1,3 C 94 % 1016,2 hPa 0,0 l/m 19,6 km/h (3 Bft) O 83 0 min 0,000 mm 0,0 UV-I 0 W/m -2,1 C -11,1 C 29,0 km/h (5 Bft) 96,33 %
02.01.2016 16:40 -1,3 C 93 % 1016,3 hPa 0,0 l/m 22,8 km/h (4 Bft) O-NO 67 0 min 0,000 mm 0,0 UV-I 0 W/m -2,3 C -12,6 C 37,0 km/h (5 Bft) 97,44 %
02.01.2016 16:45 -1,4 C 93 % 1016,3 hPa 0,0 l/m 21,6 km/h (4 Bft) O-NO 65 0 min 0,000 mm 0,0 UV-I 0 W/m -2,4 C -12,2 C 32,2 km/h (5 Bft) 98,37 %
02.01.2016 16:50 -1,4 C 93 % 1016,3 hPa 0,0 l/m 24,0 km/h (4 Bft) O-NO 59 0 min 0,000 mm 0,0 UV-I 0 W/m -2,4 C -13,2 C 35,4 km/h (5 Bft) 97,94 %
02.01.2016 16:55 -1,5 C 94 % 1016,2 hPa 0,0 l/m 26,2 km/h (4 Bft) O-NO 72 0 min 0,000 mm 0,0 UV-I 0 W/m -2,3 C -14,2 C 38,6 km/h (5 Bft) 98,53 %
02.01.2016 17:00 -1,6 C 94 % 1016,3 hPa 0,0 l/m 28,6 km/h (4 Bft) NO 49 0 min 0,000 mm 0,0 UV-I 0 W/m -2,4 C -15,2 C 41,8 km/h (6 Bft) 99,12 %
02.01.2016 17:05 -1,6 C 94 % 1016,3 hPa 0,0 l/m 29,0 km/h (5 Bft) NO 53 0 min 0,000 mm 0,0 UV-I 0 W/m -2,4 C -15,3 C 35,4 km/h (5 Bft) 100,00 %
02.01.2016 17:10 -1,6 C 94 % 1016,2 hPa 0,0 l/m 29,1 km/h (5 Bft) NO 53 0 min 0,000 mm 0,0 UV-I 0 W/m -2,4 C -15,4 C 48,3 km/h (6 Bft) 97,50 %
02.01.2016 17:15 -1,7 C 93 % 1016,3 hPa 0,0 l/m 30,5 km/h (5 Bft) O-NO 57 0 min 0,000 mm 0,0 UV-I 0 W/m -2,7 C -16,0 C 48,3 km/h (6 Bft) 99,08 %
02.01.2016 17:20 -1,7 C 94 % 1016,4 hPa 0,0 l/m 22,6 km/h (4 Bft) NO 55 0 min 0,000 mm 0,0 UV-I 0 W/m -2,5 C -13,0 C 35,4 km/h (5 Bft) 99,17 %
02.01.2016 17:25 -1,7 C 94 % 1016,3 hPa 0,0 l/m 28,0 km/h (4 Bft) NO 54 0 min 0,000 mm 0,0 UV-I 0 W/m -2,5 C -15,1 C 38,6 km/h (5 Bft) 100,00 %
02.01.2016 17:30 -1,7 C 94 % 1016,4 hPa 0,0 l/m 22,4 km/h (4 Bft) O 82 0 min 0,000 mm 0,0 UV-I 0 W/m -2,5 C -12,9 C 33,8 km/h (5 Bft) 98,26 %
02.01.2016 17:35 -1,7 C 94 % 1016,3 hPa 0,0 l/m 29,0 km/h (5 Bft) NO 41 0 min 0,000 mm 0,0 UV-I 0 W/m -2,5 C -15,5 C 40,2 km/h (6 Bft) 99,15 %
02.01.2016 17:40 -1,8 C 94 % 1016,3 hPa 0,0 l/m 27,4 km/h (4 Bft) O-NO 77 0 min 0,000 mm 0,0 UV-I 0 W/m -2,6 C -15,1 C 40,2 km/h (6 Bft) 99,12 %
02.01.2016 17:45 -1,9 C 94 % 1016,3 hPa 0,0 l/m 32,4 km/h (5 Bft) O-NO 65 0 min 0,000 mm 0,0 UV-I 0 W/m -2,7 C -16,8 C 43,5 km/h (6 Bft) 100,00 %
02.01.2016 17:50 -1,9 C 94 % 1016,3 hPa 0,0 l/m 30,2 km/h (5 Bft) O-NO 59 0 min 0,000 mm 0,0 UV-I 0 W/m -2,7 C -16,1 C 41,8 km/h (6 Bft) 100,00 %
02.01.2016 17:55 -1,9 C 94 % 1016,3 hPa 0,0 l/m 27,9 km/h (4 Bft) O-NO 57 0 min 0,000 mm 0,0 UV-I 0 W/m -2,7 C -15,4 C 37,0 km/h (5 Bft) 99,19 %
02.01.2016 18:00 -2,0 C 94 % 1016,2 hPa 0,0 l/m 26,7 km/h (4 Bft) NO 49 0 min 0,000 mm 0,0 UV-I 0 W/m -2,8 C -15,1 C 35,4 km/h (5 Bft) 100,00 %
02.01.2016 18:05 -2,0 C 94 % 1016,3 hPa 0,0 l/m 28,8 km/h (4 Bft) O 81 0 min 0,000 mm 0,0 UV-I 0 W/m -2,8 C -15,8 C 40,2 km/h (6 Bft) 100,00 %
02.01.2016 18:10 -2,1 C 94 % 1016,3 hPa 0,0 l/m 28,1 km/h (4 Bft) NO 55 0 min 0,000 mm 0,0 UV-I 0 W/m -2,9 C -15,7 C 41,8 km/h (6 Bft) 98,17 %
02.01.2016 18:15 -2,1 C 94 % 1016,3 hPa 0,0 l/m 24,9 km/h (4 Bft) O-NO 77 0 min 0,000 mm 0,0 UV-I 0 W/m -2,9 C -14,5 C 40,2 km/h (6 Bft) 97,62 %
02.01.2016 18:20 -2,2 C 94 % 1016,3 hPa 0,0 l/m 29,2 km/h (5 Bft) NO 38 0 min 0,000 mm 0,0 UV-I 0 W/m -3,0 C -16,2 C 38,6 km/h (5 Bft) 95,74 %
02.01.2016 18:25 -2,2 C 95 % 1016,4 hPa 0,0 l/m 26,1 km/h (4 Bft) O-NO 76 0 min 0,000 mm 0,0 UV-I 0 W/m -2,9 C -15,1 C 37,0 km/h (5 Bft) 97,78 %
02.01.2016 18:30 -2,2 C 94 % 1016,3 hPa 0,0 l/m 26,0 km/h (4 Bft) O-NO 65 0 min 0,000 mm 0,0 UV-I 0 W/m -3,0 C -15,1 C 38,6 km/h (5 Bft) 97,39 %
02.01.2016 18:35 -2,2 C 94 % 1016,3 hPa 0,0 l/m 24,5 km/h (4 Bft) O 79 0 min 0,000 mm 0,0 UV-I 0 W/m -3,0 C -14,5 C 40,2 km/h (6 Bft) 96,83 %
02.01.2016 18:40 -2,3 C 95 % 1016,3 hPa 0,0 l/m 29,9 km/h (5 Bft) O-NO 70 0 min 0,000 mm 0,0 UV-I 0 W/m -3,0 C -16,6 C 41,8 km/h (6 Bft) 98,17 %
02.01.2016 18:45 -2,3 C 94 % 1016,2 hPa 0,0 l/m 27,2 km/h (4 Bft) O-NO 64 0 min 0,000 mm 0,0 UV-I 0 W/m -3,1 C -15,7 C 41,8 km/h (6 Bft) 96,40 %
02.01.2016 18:50 -2,4 C 95 % 1016,2 hPa 0,0 l/m 28,5 km/h (4 Bft) NO 44 0 min 0,000 mm 0,0 UV-I 0 W/m -3,1 C -16,3 C 38,6 km/h (5 Bft) 96,69 %
02.01.2016 18:55 -2,4 C 95 % 1016,3 hPa 0,0 l/m 25,0 km/h (4 Bft) O-NO 67 0 min 0,000 mm 0,0 UV-I 0 W/m -3,1 C -15,0 C 35,4 km/h (5 Bft) 100,00 %
02.01.2016 19:00 -2,4 C 95 % 1016,3 hPa 0,0 l/m 23,2 km/h (4 Bft) O-NO 69 0 min 0,000 mm 0,0 UV-I 0 W/m -3,1 C -14,2 C 29,0 km/h (5 Bft) 100,00 %
02.01.2016 19:10 -2,5 C 95 % 1016,3 hPa 0,0 l/m 25,9 km/h (4 Bft) O-SO 113 0 min 0,000 mm 0,0 UV-I 0 W/m -3,2 C -15,5 C 37,0 km/h (5 Bft) 99,70 %
02.01.2016 19:15 -2,5 C 95 % 1016,2 hPa 0,0 l/m 23,4 km/h (4 Bft) O-NO 59 0 min 0,000 mm 0,0 UV-I 0 W/m -3,2 C -14,4 C 33,8 km/h (5 Bft) 100,00 %
02.01.2016 19:20 -2,6 C 95 % 1016,3 hPa 0,0 l/m 26,8 km/h (4 Bft) N-NO 30 0 min 0,000 mm 0,0 UV-I 0 W/m -3,3 C -15,9 C 38,6 km/h (5 Bft) 99,13 %
02.01.2016 19:25 -2,6 C 94 % 1016,3 hPa 0,0 l/m 30,2 km/h (5 Bft) O-NO 65 0 min 0,000 mm 0,0 UV-I 0 W/m -3,4 C -17,1 C 45,1 km/h (6 Bft) 97,50 %
02.01.2016 19:30 -2,7 C 95 % 1016,3 hPa 0,0 l/m 28,2 km/h (4 Bft) NO 45 0 min 0,000 mm 0,0 UV-I 0 W/m -3,4 C -16,6 C 41,8 km/h (6 Bft) 98,26 %
02.01.2016 19:35 -2,7 C 95 % 1016,3 hPa 0,0 l/m 29,0 km/h (5 Bft) NO 50 0 min 0,000 mm 0,0 UV-I 0 W/m -3,4 C -16,9 C 41,8 km/h (6 Bft) 98,31 %
02.01.2016 19:40 -2,7 C 95 % 1016,4 hPa 0,0 l/m 26,3 km/h (4 Bft) O-NO 62 0 min 0,000 mm 0,0 UV-I 0 W/m -3,4 C -15,9 C 41,8 km/h (6 Bft) 99,17 %
02.01.2016 19:45 -2,7 C 95 % 1016,4 hPa 0,0 l/m 27,9 km/h (4 Bft) NO 51 0 min 0,000 mm 0,0 UV-I 0 W/m -3,4 C -16,5 C 43,5 km/h (6 Bft) 99,06 %
02.01.2016 19:50 -2,7 C 95 % 1016,5 hPa 0,0 l/m 24,6 km/h (4 Bft) O-NO 61 0 min 0,000 mm 0,0 UV-I 0 W/m -3,4 C -15,2 C 33,8 km/h (5 Bft) 99,17 %
02.01.2016 19:55 -2,7 C 95 % 1016,5 hPa 0,0 l/m 27,2 km/h (4 Bft) O-NO 71 0 min 0,000 mm 0,0 UV-I 0 W/m -3,4 C -16,2 C 41,8 km/h (6 Bft) 100,00 %
02.01.2016 20:00 -2,8 C 95 % 1016,4 hPa 0,0 l/m 27,6 km/h (4 Bft) O-NO 61 0 min 0,000 mm 0,0 UV-I 0 W/m -3,5 C -16,5 C 38,6 km/h (5 Bft) 99,17 %
02.01.2016 20:05 -2,8 C 95 % 1016,2 hPa 0,0 l/m 28,2 km/h (4 Bft) O-NO 65 0 min 0,000 mm 0,0 UV-I 0 W/m -3,5 C -16,7 C 38,6 km/h (5 Bft) 100,00 %
02.01.2016 20:10 -2,8 C 95 % 1016,4 hPa 0,0 l/m 27,8 km/h (4 Bft) NO 47 0 min 0,000 mm 0,0 UV-I 0 W/m -3,5 C -16,6 C 45,1 km/h (6 Bft) 100,00 %
02.01.2016 20:15 -2,8 C 95 % 1016,3 hPa 0,0 l/m 26,0 km/h (4 Bft) O-NO 67 0 min 0,000 mm 0,0 UV-I 0 W/m -3,5 C -15,9 C 38,6 km/h (5 Bft) 96,52 %
02.01.2016 20:20 -2,8 C 95 % 1016,3 hPa 0,0 l/m 26,0 km/h (4 Bft) O-NO 67 0 min 0,000 mm 0,0 UV-I 0 W/m -3,5 C -15,9 C 37,0 km/h (5 Bft) 96,58 %
02.01.2016 20:25 -2,8 C 95 % 1016,3 hPa 0,0 l/m 25,1 km/h (4 Bft) O-NO 77 0 min 0,000 mm 0,0 UV-I 0 W/m -3,5 C -15,6 C 35,4 km/h (5 Bft) 97,64 %
02.01.2016 20:30 -2,8 C 95 % 1016,2 hPa 0,0 l/m 23,9 km/h (4 Bft) NO 48 0 min 0,000 mm 0,0 UV-I 0 W/m -3,5 C -15,1 C 37,0 km/h (5 Bft) 96,23 %
02.01.2016 20:35 -2,8 C 95 % 1016,3 hPa 0,0 l/m 23,1 km/h (4 Bft) O-NO 67 0 min 0,000 mm 0,0 UV-I 0 W/m -3,5 C -14,7 C 38,6 km/h (5 Bft) 97,62 %
02.01.2016 20:40 -2,8 C 95 % 1016,2 hPa 0,0 l/m 22,2 km/h (4 Bft) O-NO 59 0 min 0,000 mm 0,0 UV-I 0 W/m -3,5 C -14,3 C 32,2 km/h (5 Bft) 98,21 %
02.01.2016 20:45 -2,8 C 95 % 1016,3 hPa 0,0 l/m 26,1 km/h (4 Bft) O-NO 61 0 min 0,000 mm 0,0 UV-I 0 W/m -3,5 C -15,9 C 37,0 km/h (5 Bft) 95,41 %
02.01.2016 20:50 -2,8 C 95 % 1016,2 hPa 0,0 l/m 27,9 km/h (4 Bft) N-NO 33 0 min 0,000 mm 0,0 UV-I 0 W/m -3,5 C -16,6 C 37,0 km/h (5 Bft) 97,62 %
02.01.2016 20:55 -2,8 C 95 % 1015,9 hPa 0,0 l/m 28,1 km/h (4 Bft) NO 48 0 min 0,000 mm 0,0 UV-I 0 W/m -3,5 C -16,7 C 37,0 km/h (5 Bft) 97,56 %
02.01.2016 21:00 -2,8 C 95 % 1016,0 hPa 0,0 l/m 24,7 km/h (4 Bft) O-NO 65 0 min 0,000 mm 0,0 UV-I 0 W/m -3,5 C -15,4 C 35,4 km/h (5 Bft) 100,00 %
02.01.2016 21:05 -2,8 C 95 % 1016,0 hPa 0,0 l/m 27,5 km/h (4 Bft) O-NO 63 0 min 0,000 mm 0,0 UV-I 0 W/m -3,5 C -16,5 C 38,6 km/h (5 Bft) 98,39 %
02.01.2016 21:10 -2,8 C 95 % 1016,0 hPa 0,0 l/m 26,3 km/h (4 Bft) NO 46 0 min 0,000 mm 0,0 UV-I 0 W/m -3,5 C -16,0 C 40,2 km/h (6 Bft) 98,18 %
02.01.2016 21:15 -2,9 C 94 % 1015,9 hPa 0,0 l/m 29,8 km/h (5 Bft) NO 44 0 min 0,000 mm 0,0 UV-I 0 W/m -3,7 C -17,4 C 41,8 km/h (6 Bft) 99,17 %
02.01.2016 21:20 -2,8 C 94 % 1016,0 hPa 0,0 l/m 27,4 km/h (4 Bft) O-NO 64 0 min 0,000 mm 0,0 UV-I 0 W/m -3,6 C -16,4 C 38,6 km/h (5 Bft) 99,19 %
02.01.2016 21:25 -2,8 C 94 % 1016,1 hPa 0,0 l/m 25,3 km/h (4 Bft) O-NO 62 0 min 0,000 mm 0,0 UV-I 0 W/m -3,6 C -15,6 C 37,0 km/h (5 Bft) 99,02 %
02.01.2016 21:30 -2,8 C 94 % 1016,1 hPa 0,0 l/m 20,7 km/h (4 Bft) O-NO 63 0 min 0,000 mm 0,0 UV-I 0 W/m -3,6 C -13,6 C 32,2 km/h (5 Bft) 99,21 %
02.01.2016 21:35 -2,8 C 94 % 1016,1 hPa 0,0 l/m 19,9 km/h (4 Bft) O 90 0 min 0,000 mm 0,0 UV-I 0 W/m -3,6 C -13,2 C 27,4 km/h (4 Bft) 100,00 %
02.01.2016 21:40 -2,8 C 94 % 1016,0 hPa 0,0 l/m 22,6 km/h (4 Bft) O-NO 66 0 min 0,000 mm 0,0 UV-I 0 W/m -3,6 C -14,5 C 35,4 km/h (5 Bft) 100,00 %
02.01.2016 21:50 -2,9 C 94 % 1015,8 hPa 0,0 l/m 25,2 km/h (4 Bft) O-NO 65 0 min 0,000 mm 0,0 UV-I 0 W/m -3,7 C -15,7 C 32,2 km/h (5 Bft) 99,62 %
02.01.2016 21:55 -2,9 C 94 % 1015,8 hPa 0,0 l/m 22,7 km/h (4 Bft) O-NO 65 0 min 0,000 mm 0,0 UV-I 0 W/m -3,7 C -14,7 C 32,2 km/h (5 Bft) 97,39 %
02.01.2016 22:00 -2,9 C 94 % 1015,6 hPa 0,0 l/m 23,4 km/h (4 Bft) O-NO 69 0 min 0,000 mm 0,0 UV-I 0 W/m -3,7 C -15,0 C 32,2 km/h (5 Bft) 100,00 %
02.01.2016 22:05 -2,9 C 94 % 1015,7 hPa 0,0 l/m 19,3 km/h (3 Bft) O-NO 58 0 min 0,000 mm 0,0 UV-I 0 W/m -3,7 C -13,0 C 27,4 km/h (4 Bft) 100,00 %
02.01.2016 22:10 -2,9 C 94 % 1015,7 hPa 0,0 l/m 20,5 km/h (4 Bft) O 92 0 min 0,000 mm 0,0 UV-I 0 W/m -3,7 C -13,6 C 35,4 km/h (5 Bft) 100,00 %
02.01.2016 22:15 -2,9 C 94 % 1015,8 hPa 0,0 l/m 22,1 km/h (4 Bft) O 80 0 min 0,000 mm 0,0 UV-I 0 W/m -3,7 C -14,4 C 32,2 km/h (5 Bft) 97,50 %
02.01.2016 22:20 -2,9 C 94 % 1015,9 hPa 0,0 l/m 16,8 km/h (3 Bft) O-NO 67 0 min 0,000 mm 0,0 UV-I 0 W/m -3,7 C -11,6 C 27,4 km/h (4 Bft) 97,46 %
02.01.2016 22:25 -2,9 C 94 % 1015,9 hPa 0,0 l/m 22,7 km/h (4 Bft) NO 48 0 min 0,000 mm 0,0 UV-I 0 W/m -3,7 C -14,7 C 32,2 km/h (5 Bft) 96,61 %
02.01.2016 22:30 -2,9 C 94 % 1015,9 hPa 0,0 l/m 22,4 km/h (4 Bft) O-NO 63 0 min 0,000 mm 0,0 UV-I 0 W/m -3,7 C -14,5 C 37,0 km/h (5 Bft) 97,80 %
02.01.2016 22:35 -2,9 C 94 % 1015,8 hPa 0,0 l/m 20,8 km/h (4 Bft) NO 52 0 min 0,000 mm 0,0 UV-I 0 W/m -3,7 C -13,8 C 33,8 km/h (5 Bft) 95,65 %
02.01.2016 22:40 -2,9 C 94 % 1015,8 hPa 0,0 l/m 19,5 km/h (3 Bft) O-NO 65 0 min 0,000 mm 0,0 UV-I 0 W/m -3,7 C -13,1 C 32,2 km/h (5 Bft) 98,21 %
02.01.2016 22:45 -3,0 C 94 % 1015,7 hPa 0,0 l/m 21,0 km/h (4 Bft) O-NO 63 0 min 0,000 mm 0,0 UV-I 0 W/m -3,8 C -14,0 C 30,6 km/h (5 Bft) 96,58 %
02.01.2016 22:50 -2,9 C 94 % 1015,6 hPa 0,0 l/m 22,0 km/h (4 Bft) O-NO 68 0 min 0,000 mm 0,0 UV-I 0 W/m -3,7 C -14,3 C 32,2 km/h (5 Bft) 98,43 %
02.01.2016 22:55 -2,9 C 94 % 1015,8 hPa 0,0 l/m 20,7 km/h (4 Bft) O-NO 71 0 min 0,000 mm 0,0 UV-I 0 W/m -3,7 C -13,7 C 32,2 km/h (5 Bft) 99,06 %
02.01.2016 23:00 -2,9 C 93 % 1015,8 hPa 0,0 l/m 21,6 km/h (4 Bft) O-NO 70 0 min 0,000 mm 0,0 UV-I 0 W/m -3,9 C -14,2 C 33,8 km/h (5 Bft) 99,21 %
02.01.2016 23:05 -2,9 C 94 % 1015,7 hPa 0,0 l/m 19,5 km/h (3 Bft) O-NO 65 0 min 0,000 mm 0,0 UV-I 0 W/m -3,7 C -13,1 C 29,0 km/h (5 Bft) 100,00 %
02.01.2016 23:10 -2,9 C 94 % 1015,8 hPa 0,0 l/m 21,2 km/h (4 Bft) O-NO 59 0 min 0,000 mm 0,0 UV-I 0 W/m -3,7 C -14,0 C 30,6 km/h (5 Bft) 100,00 %
02.01.2016 23:15 -2,9 C 94 % 1015,9 hPa 0,0 l/m 18,6 km/h (3 Bft) O-NO 59 0 min 0,000 mm 0,0 UV-I 0 W/m -3,7 C -12,6 C 29,0 km/h (5 Bft) 99,24 %
02.01.2016 23:20 -2,9 C 94 % 1015,8 hPa 0,0 l/m 21,9 km/h (4 Bft) O-NO 73 0 min 0,000 mm 0,0 UV-I 0 W/m -3,7 C -14,3 C 32,2 km/h (5 Bft) 98,39 %
02.01.2016 23:25 -3,1 C 93 % 1015,9 hPa 0,0 l/m 26,8 km/h (4 Bft) O-NO 59 0 min 0,000 mm 0,0 UV-I 0 W/m -4,1 C -16,6 C 37,0 km/h (5 Bft) 98,15 %
02.01.2016 23:30 -3,1 C 93 % 1015,8 hPa 0,0 l/m 24,6 km/h (4 Bft) O 84 0 min 0,000 mm 0,0 UV-I 0 W/m -4,1 C -15,8 C 32,2 km/h (5 Bft) 98,06 %
02.01.2016 23:35 -3,1 C 94 % 1015,9 hPa 0,0 l/m 20,0 km/h (4 Bft) O-NO 71 0 min 0,000 mm 0,0 UV-I 0 W/m -3,9 C -13,6 C 29,0 km/h (5 Bft) 100,00 %
02.01.2016 23:40 -3,1 C 93 % 1015,9 hPa 0,0 l/m 22,6 km/h (4 Bft) NO 47 0 min 0,000 mm 0,0 UV-I 0 W/m -4,1 C -14,9 C 32,2 km/h (5 Bft) 98,45 %
02.01.2016 23:45 -3,1 C 93 % 1016,0 hPa 0,0 l/m 21,0 km/h (4 Bft) O-NO 67 0 min 0,000 mm 0,0 UV-I 0 W/m -4,1 C -14,1 C 35,4 km/h (5 Bft) 99,03 %
02.01.2016 23:50 -3,1 C 94 % 1016,1 hPa 0,0 l/m 16,0 km/h (3 Bft) O 96 0 min 0,000 mm 0,0 UV-I 0 W/m -3,9 C -11,4 C 24,1 km/h (4 Bft) 98,37 %
02.01.2016 23:55 -3,1 C 93 % 1016,1 hPa 0,0 l/m 18,4 km/h (3 Bft) O-NO 77 0 min 0,000 mm 0,0 UV-I 0 W/m -4,1 C -12,8 C 25,7 km/h (4 Bft) 100,00 %
_ Min-Zeit 23:25 12:35 22:00 - 00:25 - - - - - - 23:25 21:15 00:25 14:30
Minimum _ -3,1 C 91 % 1015,6 hPa - 6,9 km/h (2 Bft) - - - - - - -4,1 C -17,4 C 9,7 km/h (2 Bft) 93,62 %
_ Max-Zeit 10:30 00:00 00:00 00:00 17:45 - - 00:00 11:00 00:00 13:00 00:00 00:25 17:10 00:40
Maximum _ 0,6 C 98 % 1023,1 hPa 0,0 l/m 32,4 km/h
O-NO (5 Bft)
- - 0 min 0,026 mm 0,0 UV-I 80 W/m -0,2 C -0,6 C 48,3 km/h
NO (6 Bft)
100,00 %
Durchschnitt _ -0,9 C 94 % 1018,0 hPa #0,0 l/m 19,6 km/h (3 Bft) O-NO - #0 min. #0,178 mm 0,0 UV-I 35 W/m -1,7 C -10,3 C 29,4 km/h (5 Bft) 98,34 %